Terug naar catalogus

FENGYUN 1C DEB

ActiefSSO
NORAD 31274·DEBRIS·🇨🇳 China

Gelanceerd May 10, 1999 vanaf Taiyuan Satellite Launch Center

Loading…

Volgende Passages (komende 24 uur)

TLE

VersSource: Space-Track

Epoch: Sep 12, 2026, 22:58 UTC

1 31274U 99025BNG 26255.95701681  .00000479  00000-0  35912-3 0  9992
2 31274  99.0221  70.2454 0240396  89.4116 273.4579 13.86135213980059

Volg FENGYUN 1C DEB in realtime met AllMySat

Download on the App Store